Volver al catálogo

STARLINK-32835

ActivoComunicacionesVLEO
NORAD 63051·PAYLOAD·🇺🇸 United States

Lanzado Feb 18, 2025 desde Cape Canaveral Space Force Station

Loading…

Próximos Pases (próximas 24 horas)

TLE

ActualizadoSource: CelesTrak SupGP

Época: Sep 15, 2026, 02:17 UTC

1 63051C 25034Y   26258.09562500  .00030396  00000+0  89870-3 0  2582
2 63051  53.1576 107.1444 0001178  85.5561 218.8562 15.34352789    12

Sigue STARLINK-32835 en tiempo real con AllMySat

Download on the App Store